Twin Falls, ID

9:54 AM MDT on April 19, 2018 (GMT -0600)
Joslin Field-Magic Valley Regional

Weather History for KTWF - October, 2012

Change the Weather History Date:

Sunday, October 21, 2012

  Actual Average Record
Temperature  
Mean Temperature 44 °F -  
Max Temperature 53 °F 61 °F 81 °F (2003)
Min Temperature 35 °F 36 °F 21 °F (1996)
Degree Days  
Heating Degree Days 21 17  
Month to date heating degree days 242 271  
Since 1 July heating degree days 258 432  
Cooling Degree Days 0 0  
Month to date cooling degree days 5 0  
Year to date cooling degree days 970 678  
Moisture  
Dew Point 25 °F    
Average Humidity 43    
Maximum Humidity 55    
Minimum Humidity 30    
Precipitation  
Precipitation T in 0.03 in 0.25 in (2000)
Month to date precipitation 0.10 0.53  
Year to date precipitation 7.02 7.98  
Sea Level Pressure  
Sea Level Pressure 29.77 in    
Wind  
Wind Speed 6 mph (SW)    
Max Wind Speed 17 mph    
Max Gust Speed 22 mph    
Visibility 9 miles    
Events Snow    
T = Trace of Precipitation, MM = Missing Value Source: NWS Daily Summary

Daily Weather History Graph

Daily Weather History Graph

Search for Another Location

Airport or City:

Astronomy

Oct. 21, 2012 Rise Set
Actual Time 7:58 AM MDT 6:45 PM MDT
Civil Twilight 7:30 AM MDT 7:14 PM MDT
Nautical Twilight 6:57 AM MDT 7:46 PM MDT
Astronomical Twilight 6:24 AM MDT 8:19 PM MDT
Moon 2:24 PM MDT (10/21) No Moon Set
Length of Visible Light 11h 44m
Length of Day
10h 46m
Waxing Crescent, 46% of the Moon is Illuminated
Oct 21
Waxing Crescent
Oct 21
First Quarter
Oct 29
Full
Nov 6
Last Quarter
Nov 13
New

Hourly Weather History & Observations

Time (MDT) Temp. Windchill Dew Point Humidity Pressure Visibility Wind Dir Wind Speed Gust Speed Precip Events Conditions
12:53 AM 46.9 °F - 30.9 °F 54% 29.72 in 10.0 mi SW 12.7 mph - N/A   Mostly Cloudy
1:53 AM 45.0 °F 38.9 °F 28.0 °F 52% 29.75 in 9.0 mi SSW 12.7 mph - N/A   Clear
2:53 AM 43.0 °F 36.4 °F 27.0 °F 53% 29.77 in 8.0 mi SW 12.7 mph - N/A   Clear
3:53 AM 41.0 °F 35.2 °F 26.1 °F 55% 29.78 in 8.0 mi SW 9.2 mph - N/A   Clear
4:53 AM 41.0 °F 35.8 °F 26.1 °F 55% 29.78 in 7.0 mi SSW 8.1 mph - 0.00 in   Clear
5:53 AM 41.0 °F 35.8 °F 26.1 °F 55% 29.78 in 7.0 mi SSW 8.1 mph - N/A   Clear
6:53 AM 42.1 °F 37.7 °F 25.0 °F 51% 29.80 in 7.0 mi SSW 6.9 mph - N/A   Clear
7:53 AM 42.1 °F 37.1 °F 25.0 °F 51% 29.80 in 7.0 mi SSW 8.1 mph - N/A   Clear
8:53 AM 43.0 °F 38.8 °F 26.1 °F 51% 29.81 in 5.0 mi SSW 6.9 mph - N/A   Haze
9:53 AM 46.0 °F 41.9 °F 25.0 °F 44% 29.81 in 10.0 mi SSW 8.1 mph - N/A   Clear
10:53 AM 48.9 °F - 21.0 °F 33% 29.81 in 10.0 mi West 9.2 mph - N/A   Clear
11:53 AM 50.0 °F - 21.9 °F 33% 29.79 in 10.0 mi WNW 6.9 mph - N/A   Clear
12:53 PM 52.0 °F - 21.9 °F 31% 29.79 in 10.0 mi WNW 3.5 mph - N/A   Clear
1:53 PM 51.1 °F - 21.9 °F 32% 29.78 in 10.0 mi Calm Calm - N/A   Scattered Clouds
2:53 PM 52.0 °F - 23.0 °F 32% 29.77 in 10.0 mi NNW 4.6 mph - N/A   Clear
3:53 PM 52.0 °F - 23.0 °F 32% 29.76 in 10.0 mi NW 3.5 mph - N/A   Overcast
4:53 PM 51.1 °F - 23.0 °F 33% 29.76 in 10.0 mi NNW 3.5 mph - N/A   Overcast
5:53 PM 52.0 °F - 23.0 °F 32% 29.74 in 10.0 mi Calm Calm - N/A   Overcast
6:53 PM 46.0 °F 44.8 °F 27.0 °F 47% 29.75 in 10.0 mi NNE 3.5 mph - N/A   Clear
7:53 PM 37.9 °F 35.5 °F 23.0 °F 55% 29.77 in 10.0 mi ENE 3.5 mph - N/A   Mostly Cloudy
8:53 PM 39.0 °F 35.7 °F 25.0 °F 57% 29.76 in 9.0 mi East 4.6 mph - 0.00 in   Unknown
9:53 PM 39.0 °F 34.8 °F 25.0 °F 57% 29.74 in 10.0 mi SE 5.8 mph - 0.00 in   Clear
10:53 PM 37.9 °F 32.7 °F 24.1 °F 57% 29.73 in 9.0 mi SSW 6.9 mph - 0.00 in Snow Light Snow
11:53 PM 39.0 °F 34.8 °F 24.1 °F 55% 29.73 in 8.0 mi SW 5.8 mph - 0.00 in   Clear